| time (UTC) | temp F | wind direction | speed knots | gust knots | rain 1hr in | rain 24hr in | rain mn in | humidity % | barometer mb |
| 20260510190046 | 81 | 55 | 0.0 | 3.5 | 0.00 | 0.00 | 0.00 | 39 | 1014.7 |
| 20260510184536 | 81 | 36 | 0.0 | 6.1 | 0.00 | 0.00 | 0.00 | 37 | 1014.8 |
| 20260510183033 | 81 | 241 | 0.0 | 2.6 | 0.00 | 0.00 | 0.00 | 39 | 1015.1 |
| 20260510181533 | 81 | 225 | 0.9 | 8.7 | 0.00 | 0.00 | 0.00 | 39 | 1015.2 |
| 20260510180032 | 81 | 267 | 0.0 | 1.7 | 0.00 | 0.00 | 0.00 | 39 | 1015.3 |
| 20260510174528 | 81 | 54 | 0.0 | 0.9 | 0.00 | 0.00 | 0.00 | 46 | 1015.4 |
| 20260510173026 | 80 | 150 | 0.0 | 1.7 | 0.00 | 0.00 | 0.00 | 42 | 1015.5 |
| 20260510171532 | 79 | 229 | 0.0 | 1.7 | 0.00 | 0.00 | 0.00 | 45 | 1015.6 |
| 20260510170022 | 79 | 88 | 0.9 | 4.3 | 0.00 | 0.00 | 0.00 | 44 | 1015.5 |
| 20260510164520 | 79 | 227 | 0.0 | 1.7 | 0.00 | 0.00 | 0.00 | 48 | 1015.6 |
| 20260510163017 | 78 | 224 | 0.0 | 2.6 | 0.00 | 0.00 | 0.00 | 48 | 1015.7 |
| 20260510161516 | 78 | 245 | 0.0 | 2.6 | 0.00 | 0.00 | 0.00 | 45 | 1015.9 |
| 20260510160016 | 77 | 195 | 0.0 | 0.9 | 0.00 | 0.00 | 0.00 | 56 | 1015.9 |
| 20260510154511 | 76 | 242 | 0.0 | 1.7 | 0.00 | 0.00 | 0.00 | 59 | 1016.1 |
| 20260510153007 | 76 | 242 | 0.0 | 2.6 | 0.00 | 0.00 | 0.00 | 61 | 1016.4 |
| 20260510151506 | 75 | 228 | 0.0 | 1.7 | 0.00 | 0.00 | 0.00 | 64 | 1016.2 |
| 20260510150100 | 75 | 165 | 0.0 | 1.7 | 0.00 | 0.00 | 0.00 | 67 | 1016.1 |
| 20260510144607 | 73 | 74 | 0.0 | 1.7 | 0.00 | 0.00 | 0.00 | 67 | 1016.1 |
| 20260510143054 | 72 | 236 | 0.0 | 2.6 | 0.00 | 0.00 | 0.00 | 71 | 1016.1 |
| 20260510141550 | 71 | 59 | 0.0 | 1.7 | 0.00 | 0.00 | 0.00 | 74 | 1016.1 |
| 20260510140046 | 70 | 232 | 0.0 | 1.7 | 0.00 | 0.00 | 0.00 | 78 | 1016.2 |
| 20260510134543 | 68 | 220 | 0.0 | 0.0 | 0.00 | 0.01 | 0.00 | 82 | 1016.3 |
| 20260510133038 | 66 | 230 | 0.0 | 1.7 | 0.00 | 0.01 | 0.00 | 83 | 1016.1 |
| 20260510131534 | 65 | 275 | 0.0 | 0.0 | 0.00 | 0.01 | 0.00 | 81 | 1016.2 |
| 20260510130031 | 65 | 82 | 0.0 | 0.0 | 0.00 | 0.01 | 0.00 | 80 | 1015.8 |
| 20260510124526 | 64 | 334 | 0.0 | 0.0 | 0.00 | 0.01 | 0.00 | 80 | 1015.6 |
| 20260510123022 | 63 | 334 | 0.0 | 0.0 | 0.00 | 0.01 | 0.00 | 80 | 1015.7 |
| 20260510121517 | 62 | 335 | 0.0 | 0.0 | 0.00 | 0.01 | 0.00 | 80 | 1015.4 |
| 20260510120014 | 61 | 128 | 0.0 | 0.0 | 0.00 | 0.01 | 0.00 | 81 | 1015.3 |
| 20260510114511 | 60 | 128 | 0.0 | 0.0 | 0.00 | 0.01 | 0.00 | 81 | 1015.2 |
| 20260510113008 | 59 | 128 | 0.0 | 0.0 | 0.00 | 0.01 | 0.00 | 81 | 1015.0 |
| 20260510111504 | 58 | 325 | 0.0 | 0.0 | 0.00 | 0.01 | 0.00 | 81 | 1014.7 |
| 20260510110001 | 58 | 325 | 0.0 | 0.0 | 0.00 | 0.01 | 0.00 | 82 | 1014.5 |
| 20260510104558 | 58 | 325 | 0.0 | 0.0 | 0.00 | 0.01 | 0.00 | 82 | 1014.3 |
| 20260510103056 | 58 | 325 | 0.0 | 0.0 | 0.00 | 0.01 | 0.00 | 82 | 1014.2 |
| 20260510101602 | 58 | 325 | 0.0 | 0.0 | 0.00 | 0.01 | 0.00 | 82 | 1014.0 |
| 20260510100054 | 58 | 163 | 0.0 | 0.0 | 0.00 | 0.01 | 0.00 | 82 | 1013.7 |
| 20260510094552 | 58 | 226 | 0.0 | 0.0 | 0.00 | 0.01 | 0.00 | 82 | 1013.5 |
| 20260510093046 | 58 | 226 | 0.0 | 0.0 | 0.00 | 0.01 | 0.00 | 82 | 1013.3 |
| 20260510091545 | 58 | 226 | 0.0 | 0.0 | 0.00 | 0.01 | 0.00 | 82 | 1013.1 |
| 20260510090044 | 58 | 226 | 0.0 | 0.0 | 0.00 | 0.01 | 0.00 | 82 | 1013.0 |
| 20260510084552 | 59 | 226 | 0.0 | 0.0 | 0.00 | 0.01 | 0.00 | 82 | 1012.9 |
| 20260510083042 | 59 | 226 | 0.0 | 0.0 | 0.00 | 0.01 | 0.00 | 82 | 1012.9 |
| 20260510081543 | 59 | 226 | 0.0 | 0.0 | 0.00 | 0.01 | 0.00 | 82 | 1012.7 |
| 20260510080055 | 59 | 226 | 0.0 | 0.0 | 0.00 | 0.01 | 0.00 | 82 | 1012.7 |
| 20260510074540 | 59 | 226 | 0.0 | 0.0 | 0.00 | 0.01 | 0.00 | 82 | 1012.8 |
| 20260510073047 | 59 | 226 | 0.0 | 0.0 | 0.00 | 0.01 | 0.00 | 82 | 1012.6 |
| 20260510071538 | 59 | 226 | 0.0 | 0.0 | 0.00 | 0.01 | 0.00 | 82 | 1012.5 |
| 20260510070046 | 59 | 226 | 0.0 | 0.0 | 0.00 | 0.01 | 0.00 | 82 | 1012.4 |
| 20260510064543 | 59 | 226 | 0.0 | 0.0 | 0.00 | 0.01 | 0.00 | 82 | 1012.6 |
| 20260510063038 | 59 | 226 | 0.0 | 0.0 | 0.00 | 0.01 | 0.00 | 82 | 1012.6 |
| 20260510061536 | 59 | 226 | 0.0 | 0.0 | 0.00 | 0.01 | 0.00 | 82 | 1012.5 |
| 20260510060040 | 59 | 226 | 0.0 | 0.0 | 0.00 | 0.01 | 0.00 | 82 | 1012.7 |
| 20260510054531 | 59 | 226 | 0.0 | 0.0 | 0.00 | 0.01 | 0.00 | 82 | 1012.7 |
| 20260510053030 | 60 | 226 | 0.0 | 0.0 | 0.00 | 0.01 | 0.00 | 82 | 1012.8 |
| 20260510051527 | 60 | 226 | 0.0 | 0.0 | 0.00 | 0.01 | 0.00 | 82 | 1012.9 |
| 20260510050034 | 60 | 226 | 0.0 | 0.0 | 0.00 | 0.01 | 0.00 | 82 | 1013.0 |
| 20260510044525 | 60 | 226 | 0.0 | 0.0 | 0.00 | 0.01 | 0.00 | 83 | 1013.1 |
| 20260510043022 | 60 | 226 | 0.0 | 0.0 | 0.00 | 0.01 | 0.00 | 83 | 1013.1 |
| 20260510041523 | 60 | 226 | 0.0 | 0.0 | 0.00 | 0.01 | 0.00 | 83 | 1013.1 |
| 20260510040020 | 60 | 226 | 0.0 | 0.0 | 0.00 | 0.01 | 0.00 | 83 | 1013.1 |
| 20260510034519 | 60 | 226 | 0.0 | 0.0 | 0.00 | 0.01 | 0.01 | 83 | 1012.9 |
| 20260510033018 | 60 | 226 | 0.0 | 0.0 | 0.00 | 0.01 | 0.01 | 83 | 1012.9 |
| 20260510031523 | 61 | 226 | 0.0 | 0.0 | 0.00 | 0.01 | 0.01 | 83 | 1012.8 |
| 20260510030016 | 61 | 226 | 0.0 | 0.0 | 0.00 | 0.01 | 0.01 | 83 | 1012.8 |
| 20260510024518 | 61 | 226 | 0.0 | 0.0 | 0.00 | 0.01 | 0.01 | 83 | 1012.7 |
| 20260510023017 | 62 | 226 | 0.0 | 0.0 | 0.00 | 0.01 | 0.01 | 83 | 1012.6 |
| 20260510021538 | 62 | 226 | 0.0 | 0.0 | 0.00 | 0.01 | 0.01 | 83 | 1012.6 |
| 20260510020015 | 63 | 226 | 0.0 | 0.0 | 0.00 | 0.01 | 0.01 | 83 | 1012.4 |
| 20260510014529 | 63 | 226 | 0.0 | 0.0 | 0.00 | 0.01 | 0.01 | 83 | 1012.4 |
| 20260510013013 | 64 | 226 | 0.0 | 0.0 | 0.00 | 0.01 | 0.01 | 83 | 1012.0 |
| 20260510011516 | 64 | 226 | 0.0 | 0.0 | 0.00 | 0.01 | 0.01 | 83 | 1011.8 |
| 20260510010021 | 65 | 226 | 0.0 | 0.0 | 0.00 | 0.01 | 0.01 | 83 | 1011.6 |
| 20260510004512 | 66 | 226 | 0.0 | 0.0 | 0.00 | 0.01 | 0.01 | 82 | 1011.4 |
| 20260510003012 | 67 | 226 | 0.0 | 0.0 | 0.00 | 0.01 | 0.01 | 82 | 1011.3 |
| 20260510001511 | 68 | 226 | 0.0 | 0.0 | 0.00 | 0.01 | 0.01 | 81 | 1011.3 |
| 20260510000011 | 68 | 227 | 0.0 | 0.0 | 0.00 | 0.01 | 0.01 | 80 | 1011.3 |
| 20260509234511 | 70 | 234 | 0.0 | 0.0 | 0.00 | 0.01 | 0.01 | 79 | 1011.2 |
| 20260509233010 | 71 | 234 | 0.0 | 0.0 | 0.00 | 0.01 | 0.01 | 77 | 1011.0 |
| 20260509231508 | 71 | 234 | 0.0 | 0.9 | 0.00 | 0.01 | 0.01 | 75 | 1010.8 |
| 20260509230021 | 71 | 232 | 0.0 | 0.9 | 0.00 | 0.01 | 0.01 | 75 | 1010.7 |
| 20260509224508 | 72 | 227 | 0.0 | 0.9 | 0.00 | 0.01 | 0.01 | 74 | 1010.6 |
| 20260509223008 | 72 | 162 | 0.0 | 1.7 | 0.00 | 0.01 | 0.01 | 73 | 1010.5 |
| 20260509221507 | 72 | 242 | 0.0 | 1.7 | 0.00 | 0.01 | 0.01 | 74 | 1010.7 |
| 20260509220007 | 71 | 261 | 0.0 | 0.9 | 0.00 | 0.01 | 0.01 | 73 | 1010.7 |
| 20260509214506 | 71 | 240 | 0.0 | 1.7 | 0.00 | 0.01 | 0.01 | 73 | 1010.6 |
| 20260509213007 | 72 | 261 | 0.0 | 1.7 | 0.00 | 0.01 | 0.01 | 74 | 1010.6 |
| 20260509211504 | 72 | 260 | 0.0 | 3.5 | 0.00 | 0.01 | 0.01 | 73 | 1010.6 |
| 20260509210004 | 72 | 263 | 0.0 | 2.6 | 0.00 | 0.01 | 0.01 | 71 | 1010.4 |
| 20260509204502 | 71 | 265 | 0.0 | 0.9 | 0.00 | 0.01 | 0.01 | 74 | 1010.4 |
| 20260509203101 | 70 | 255 | 0.0 | 0.9 | 0.00 | 0.01 | 0.01 | 74 | 1010.5 |
| 20260509201606 | 71 | 257 | 0.0 | 0.0 | 0.00 | 0.01 | 0.01 | 75 | 1010.7 |
| 20260509200100 | 70 | 257 | 0.0 | 0.0 | 0.00 | 0.01 | 0.01 | 75 | 1010.7 |
| 20260509194601 | 70 | 223 | 0.0 | 0.0 | 0.00 | 0.01 | 0.01 | 76 | 1010.9 |
| 20260509193056 | 69 | 240 | 0.0 | 0.9 | 0.00 | 0.01 | 0.01 | 75 | 1011.1 |
| 20260509191606 | 69 | 246 | 0.0 | 2.6 | 0.00 | 0.01 | 0.01 | 75 | 1011.3 |